When you browse on this site, cookies collect data to enhance your experience and personalize the content and advertising you see.
Visit our Privacy Policy to learn more. By continuing to use the site, you agree to this use of cookies and data.
  • In Romania
  • List of Countries
  • For 7 days
  • Water Temperature
  • Satellite Maps
  • Weather Map
  • Weather Widgets
  • user-avatar
    Login

    Hourly Weather Ivanovka-Seleznevka

    Today, 24 March, Sunday

    Time Temperature Precipitation Wind Pressure Humidity
    00:00 -1°C° 0 mm 2 mps 748 mmHg 94%
    01:00 -2°C° 0 mm 2 mps 748 mmHg 94%
    02:00 -3°C° 0 mm 2 mps 748 mmHg 94%
    03:00 -2°C° 0 mm 1 mps 747 mmHg 96%
    04:00 -3°C° 0 mm 1 mps 747 mmHg 96%
    05:00 -3°C° 0 mm 1 mps 747 mmHg 97%
    06:00 -5°C° 0 mm 0 mps 746 mmHg 97%
    07:00 -3°C° 0 mm 1 mps 746 mmHg 97%
    08:00 -2°C° 0 mm 1 mps 746 mmHg 96%
    09:00 -2°C° 0 mm 2 mps 745 mmHg 96%
    10:00 -2°C° 0 mm 2 mps 745 mmHg 97%
    11:00 -1°C° 0 mm 2 mps 744 mmHg 98%
    12:00 -1°C° 0 mm 3 mps 744 mmHg 99%
    13:00 -1°C° 0.2 mm 3 mps 743 mmHg 99%
    14:00 -2°C° 0.2 mm 4 mps 743 mmHg 99%
    15:00 -1°C° 0.2 mm 4 mps 742 mmHg 99%
    16:00 -1°C° 0.3 mm 4 mps 742 mmHg 97%
    17:00 -1°C° 0.3 mm 5 mps 741 mmHg 96%
    18:00 -1°C° 0.3 mm 5 mps 741 mmHg 94%
    19:00 -2°C° 0.1 mm 4 mps 741 mmHg 95%
    20:00 -2°C° 0.1 mm 4 mps 740 mmHg 95%
    21:00 -1°C° 0.1 mm 3 mps 740 mmHg 95%
    22:00 -2°C° 0 mm 4 mps 740 mmHg 94%
    23:00 -3°C° 0 mm 4 mps 740 mmHg 92%

    Tomorrow, 25 March, Monday

    Time Temperature Precipitation Wind Pressure Humidity
    00:00 -4°C° 0 mm 4 mps 740 mmHg 90%
    01:00 -4°C° 0 mm 4 mps 740 mmHg 90%
    02:00 -4°C° 0 mm 4 mps 740 mmHg 89%
    03:00 -5°C° 0 mm 4 mps 740 mmHg 89%
    04:00 -5°C° 0 mm 4 mps 740 mmHg 90%
    05:00 -5°C° 0 mm 4 mps 740 mmHg 90%
    06:00 -5°C° 0 mm 4 mps 740 mmHg 90%
    07:00 -5°C° 0 mm 4 mps 740 mmHg 90%
    08:00 -5°C° 0 mm 5 mps 740 mmHg 89%
    09:00 -5°C° 0 mm 5 mps 741 mmHg 89%
    10:00 -3°C° 0 mm 4 mps 741 mmHg 90%
    11:00 -2°C° 0 mm 4 mps 741 mmHg 91%
    12:00 -1°C° 0 mm 4 mps 741 mmHg 92%
    13:00 -1°C° 0 mm 4 mps 741 mmHg 94%
    14:00 -1°C° 0 mm 4 mps 741 mmHg 95%
    15:00 -1°C° 0 mm 4 mps 741 mmHg 96%
    16:00 -1°C° 0 mm 4 mps 741 mmHg 94%
    17:00 -2°C° 0 mm 4 mps 742 mmHg 92%
    18:00 -1°C° 0 mm 3 mps 742 mmHg 90%
    19:00 -2°C° 0 mm 3 mps 742 mmHg 89%
    20:00 -2°C° 0 mm 3 mps 742 mmHg 88%
    21:00 -4°C° 0 mm 3 mps 742 mmHg 87%
    22:00 -4°C° 0 mm 3 mps 742 mmHg 86%
    23:00 -4°C° 0 mm 3 mps 742 mmHg 85%

    Day after tomorrow, 26 March, Tuesday

    Time Temperature Precipitation Wind Pressure Humidity
    00:00 -4°C° 0 mm 3 mps 742 mmHg 84%
    01:00 -4°C° 0 mm 3 mps 742 mmHg 84%
    02:00 -4°C° 0 mm 3 mps 742 mmHg 85%
    03:00 -4°C° 0 mm 3 mps 742 mmHg 85%
    04:00 -4°C° 0 mm 4 mps 741 mmHg 86%
    05:00 -4°C° 0 mm 4 mps 741 mmHg 87%
    06:00 -3°C° 0 mm 4 mps 741 mmHg 87%
    07:00 -3°C° 0.2 mm 4 mps 740 mmHg 89%
    08:00 -2°C° 0.2 mm 4 mps 740 mmHg 90%
    09:00 -1°C° 0.2 mm 4 mps 740 mmHg 91%
    10:00 -1°C° 0.3 mm 4 mps 740 mmHg 93%
    11:00 0°C° 0.3 mm 3 mps 739 mmHg 96%
    12:00 0°C° 0.3 mm 3 mps 739 mmHg 98%
    13:00 0°C° 0 mm 3 mps 738 mmHg 98%
    14:00 -1°C° 0 mm 4 mps 738 mmHg 99%
    15:00 0°C° 0 mm 4 mps 737 mmHg 99%
    16:00 0°C° 0.2 mm 4 mps 737 mmHg 98%
    17:00 -1°C° 0.2 mm 5 mps 737 mmHg 98%
    18:00 -1°C° 0.2 mm 5 mps 737 mmHg 97%
    19:00 -1°C° 0.1 mm 5 mps 737 mmHg 94%
    20:00 -2°C° 0.1 mm 4 mps 737 mmHg 92%
    21:00 -2°C° 0.1 mm 4 mps 737 mmHg 89%
    22:00 -3°C° 0 mm 4 mps 738 mmHg 89%
    23:00 -3°C° 0 mm 4 mps 738 mmHg 89%

    27 March, Wednesday

    Time Temperature Precipitation Wind Pressure Humidity
    00:00 -4°C° 0 mm 4 mps 738 mmHg 89%
    01:00 -4°C° 0 mm 4 mps 739 mmHg 88%
    02:00 -5°C° 0 mm 4 mps 739 mmHg 88%
    03:00 -5°C° 0 mm 3 mps 739 mmHg 87%
    04:00 -5°C° 0 mm 3 mps 740 mmHg 88%
    05:00 -6°C° 0 mm 3 mps 740 mmHg 88%
    06:00 -5°C° 0 mm 2 mps 740 mmHg 88%
    07:00 -4°C° 0 mm 2 mps 741 mmHg 87%
    08:00 -4°C° 0 mm 2 mps 741 mmHg 86%
    09:00 -3°C° 0 mm 2 mps 742 mmHg 86%
    10:00 -2°C° 0 mm 2 mps 742 mmHg 84%
    11:00 -2°C° 0 mm 2 mps 742 mmHg 82%
    12:00 -1°C° 0 mm 2 mps 742 mmHg 81%
    13:00 -1°C° 0 mm 2 mps 742 mmHg 79%
    14:00 +1°C° 0 mm 2 mps 742 mmHg 77%
    15:00 +1°C° 0 mm 2 mps 742 mmHg 76%
    16:00 -1°C° 0 mm 2 mps 743 mmHg 75%
    17:00 -1°C° 0 mm 2 mps 743 mmHg 75%
    18:00 -2°C° 0 mm 2 mps 743 mmHg 75%
    19:00 -2°C° 0 mm 3 mps 743 mmHg 77%
    20:00 -3°C° 0 mm 4 mps 744 mmHg 79%
    21:00 -4°C° 0 mm 4 mps 744 mmHg 81%
    22:00 -4°C° 0 mm 4 mps 744 mmHg 83%
    23:00 -5°C° 0 mm 5 mps 744 mmHg 85%

    28 March, Thursday

    Time Temperature Precipitation Wind Pressure Humidity
    00:00 -5°C° 0 mm 5 mps 744 mmHg 88%
    01:00 -4°C° 0 mm 5 mps 745 mmHg 89%
    02:00 -4°C° 0 mm 5 mps 745 mmHg 90%
    03:00 -2°C° 0 mm 5 mps 745 mmHg 92%
    04:00 -3°C° 0.1 mm 6 mps 746 mmHg 90%
    05:00 -3°C° 0.1 mm 6 mps 746 mmHg 89%
    06:00 -3°C° 0.1 mm 7 mps 746 mmHg 87%
    07:00 -3°C° 0 mm 7 mps 747 mmHg 86%
    08:00 -3°C° 0 mm 7 mps 748 mmHg 84%
    09:00 -3°C° 0 mm 7 mps 748 mmHg 83%
    10:00 -3°C° 0 mm 7 mps 749 mmHg 82%
    11:00 -3°C° 0 mm 7 mps 749 mmHg 82%
    12:00 -3°C° 0 mm 7 mps 750 mmHg 81%
    13:00 -3°C° 0 mm 7 mps 750 mmHg 80%
    14:00 -3°C° 0 mm 7 mps 750 mmHg 78%
    15:00 -3°C° 0 mm 6 mps 751 mmHg 76%
    16:00 -3°C° 0 mm 6 mps 751 mmHg 75%
    17:00 -2°C° 0 mm 5 mps 751 mmHg 73%
    18:00 -3°C° 0 mm 4 mps 751 mmHg 71%
    19:00 -3°C° 0 mm 4 mps 752 mmHg 72%
    20:00 -4°C° 0 mm 4 mps 752 mmHg 73%
    21:00 -5°C° 0 mm 3 mps 752 mmHg 74%
    22:00 -5°C° 0 mm 3 mps 752 mmHg 75%
    23:00 -5°C° 0 mm 3 mps 752 mmHg 76%

    29 March, Friday

    Time Temperature Precipitation Wind Pressure Humidity
    00:00 -5°C° 0 mm 3 mps 752 mmHg 76%
    01:00 -5°C° 0 mm 4 mps 751 mmHg 75%
    02:00 -5°C° 0 mm 4 mps 751 mmHg 74%
    03:00 -6°C° 0 mm 5 mps 751 mmHg 73%
    04:00 -6°C° 0 mm 5 mps 750 mmHg 74%
    05:00 -5°C° 0 mm 6 mps 749 mmHg 75%
    06:00 -5°C° 0 mm 6 mps 748 mmHg 76%
    07:00 -6°C° 0.1 mm 7 mps 747 mmHg 78%
    08:00 -5°C° 0.1 mm 8 mps 746 mmHg 80%
    09:00 -4°C° 0.1 mm 9 mps 746 mmHg 83%
    10:00 -4°C° 0.4 mm 9 mps 745 mmHg 84%
    11:00 -2°C° 0.4 mm 8 mps 745 mmHg 86%
    12:00 -1°C° 0.4 mm 7 mps 744 mmHg 88%
    13:00 -1°C° 0.1 mm 8 mps 744 mmHg 83%
    14:00 -1°C° 0.1 mm 8 mps 744 mmHg 77%
    15:00 0°C° 0.1 mm 8 mps 745 mmHg 72%
    16:00 -1°C° 0 mm 7 mps 745 mmHg 73%
    17:00 -1°C° 0 mm 6 mps 746 mmHg 74%
    18:00 -1°C° 0 mm 5 mps 746 mmHg 76%
    19:00 -2°C° 0 mm 4 mps 747 mmHg 78%
    20:00 -2°C° 0 mm 4 mps 747 mmHg 81%
    21:00 -2°C° 0 mm 3 mps 748 mmHg 83%
    22:00 -2°C° 0 mm 3 mps 748 mmHg 84%
    23:00 -3°C° 0 mm 2 mps 748 mmHg 85%
    Show more